Location: Bidwell Hollow
(37.7387°N, 90.1707°W)
Time: 02:49:00
(UTC+00:00)

Tiros 1 despin weight - Pass Details

Date: 20 May 2026
Orbit: 554 x 591 km, 48.2° (Epoch: 6 June)

Event Time Altitude Azimuth Distance (km) Brightness Sun altitude
Rises 12:12:53 0° 299° (WNW) 2,754 ? 15.1°
Reaches altitude 10° 12:15:40 10° 316° (NW) 1,851 ? 15.6°
Maximum altitude 12:18:47 20° 4° (N) 1,330 ? 16.2°
Drops below altitude 10° 12:21:54 10° 52° (NE) 1,838 ? 16.8°
Sets 12:24:39 0° 70° (ENE) 2,729 ? 17.4°
